Time,TemperatureF,DewpointF,PressureIn,WindDirection,WindDirectionDegrees,WindSpeedMPH,WindSpeedGustMPH,Humidity,HourlyPrecipIn,Conditions,Clouds,dailyrainin,SolarRadiationWatts/m^2,SoftwareType,DateUTC
2013-02-28 00:01:00,38.0,37.0,-100.00,SSE,163,9.0,13.0,96,0.00,,,0.15,0.000000,,2013-02-28 08:01:00,
2013-02-28 00:11:00,38.0,37.0,-100.00,SSE,163,9.0,13.0,96,0.00,,,0.15,0.000000,,2013-02-28 08:11:00,
2013-02-28 00:21:00,38.0,37.0,-100.00,SSE,163,9.0,13.0,96,0.00,,,0.15,0.000000,,2013-02-28 08:21:00,
2013-02-28 00:31:00,38.0,37.0,-100.00,SSE,163,9.0,13.0,96,0.00,,,0.15,0.000000,,2013-02-28 08:31:00,
2013-02-28 00:53:00,38.0,37.0,-100.00,SSE,163,10.0,14.0,96,0.01,,,0.16,0.000000,,2013-02-28 08:53:00,
2013-02-28 01:03:00,38.0,37.0,-100.00,SSE,163,10.0,14.0,96,0.01,,,0.16,0.000000,,2013-02-28 09:03:00,
2013-02-28 01:11:00,38.0,37.0,-100.00,SSE,163,10.0,14.0,96,0.01,,,0.16,0.000000,,2013-02-28 09:11:00,
2013-02-28 01:21:00,38.0,37.0,-100.00,SSE,163,10.0,14.0,96,0.01,,,0.16,0.000000,,2013-02-28 09:21:00,
2013-02-28 01:31:00,38.0,37.0,-100.00,SSE,163,10.0,14.0,96,0.01,,,0.16,0.000000,,2013-02-28 09:31:00,
2013-02-28 02:01:00,38.0,37.0,-100.00,SSE,164,10.0,11.0,96,0.00,,,0.16,0.000000,,2013-02-28 10:01:00,
2013-02-28 02:11:00,38.0,37.0,-100.00,SSE,164,10.0,11.0,96,0.00,,,0.16,0.000000,,2013-02-28 10:11:00,
2013-02-28 02:21:00,38.0,37.0,-100.00,SSE,164,10.0,11.0,96,0.00,,,0.16,0.000000,,2013-02-28 10:21:00,
2013-02-28 02:31:00,38.0,37.0,-100.00,SSE,164,10.0,11.0,96,0.00,,,0.16,0.000000,,2013-02-28 10:31:00,
2013-02-28 02:52:00,38.0,37.0,-100.00,SSE,164,9.0,12.0,96,0.00,,,0.16,0.000000,,2013-02-28 10:52:00,
2013-02-28 03:01:00,38.0,37.0,-100.00,SSE,164,9.0,12.0,96,0.00,,,0.16,0.000000,,2013-02-28 11:01:00,
2013-02-28 03:11:00,38.0,37.0,-100.00,SSE,164,9.0,12.0,96,0.00,,,0.16,0.000000,,2013-02-28 11:11:00,
2013-02-28 03:21:00,38.0,37.0,-100.00,SSE,164,9.0,12.0,96,0.00,,,0.16,0.000000,,2013-02-28 11:21:00,
2013-02-28 03:31:00,38.0,37.0,-100.00,SSE,164,9.0,12.0,96,0.00,,,0.16,0.000000,,2013-02-28 11:31:00,
2013-02-28 03:52:00,39.0,38.0,-100.00,SSE,166,11.0,13.0,96,0.01,,,0.17,0.000000,,2013-02-28 11:52:00,
2013-02-28 04:01:00,39.0,38.0,-100.00,SSE,166,11.0,13.0,96,0.01,,,0.17,0.000000,,2013-02-28 12:01:00,
2013-02-28 04:11:00,39.0,38.0,-100.00,SSE,166,11.0,13.0,96,0.01,,,0.17,0.000000,,2013-02-28 12:11:00,
2013-02-28 04:21:00,39.0,38.0,-100.00,SSE,166,11.0,13.0,96,0.01,,,0.17,0.000000,,2013-02-28 12:21:00,
2013-02-28 04:31:00,39.0,38.0,-100.00,SSE,166,11.0,13.0,96,0.01,,,0.17,0.000000,,2013-02-28 12:31:00,
2013-02-28 05:01:00,39.0,38.0,-100.00,SSE,165,11.0,14.0,96,0.00,,,0.17,0.000000,,2013-02-28 13:01:00,
2013-02-28 05:11:00,39.0,38.0,-100.00,SSE,165,11.0,14.0,96,0.00,,,0.17,0.000000,,2013-02-28 13:11:00,
2013-02-28 05:21:00,39.0,38.0,-100.00,SSE,165,11.0,14.0,96,0.00,,,0.17,0.000000,,2013-02-28 13:21:00,
2013-02-28 05:31:00,39.0,38.0,-100.00,SSE,165,11.0,14.0,96,0.00,,,0.17,0.000000,,2013-02-28 13:31:00,
2013-02-28 06:01:00,39.0,38.0,-100.00,SSE,167,11.0,15.0,96,0.01,,,0.18,0.000000,,2013-02-28 14:01:00,
2013-02-28 06:11:00,39.0,38.0,-100.00,SSE,167,11.0,15.0,96,0.01,,,0.18,0.000000,,2013-02-28 14:11:00,
2013-02-28 06:21:00,39.0,38.0,-100.00,SSE,167,11.0,15.0,96,0.01,,,0.18,0.000000,,2013-02-28 14:21:00,
2013-02-28 06:31:00,39.0,38.0,-100.00,SSE,167,11.0,15.0,96,0.01,,,0.18,0.000000,,2013-02-28 14:31:00,
2013-02-28 07:02:00,39.0,38.0,-100.00,SSE,165,11.0,17.0,96,0.01,,,0.19,0.000000,,2013-02-28 15:02:00,
2013-02-28 07:11:00,39.0,38.0,-100.00,SSE,165,11.0,17.0,96,0.01,,,0.19,0.000000,,2013-02-28 15:11:00,
2013-02-28 07:21:00,39.0,38.0,-100.00,SSE,165,11.0,17.0,96,0.01,,,0.19,0.000000,,2013-02-28 15:21:00,
2013-02-28 07:31:00,39.0,38.0,-100.00,SSE,165,11.0,17.0,96,0.01,,,0.19,0.000000,,2013-02-28 15:31:00,
2013-02-28 08:01:00,39.0,38.0,-100.00,SSE,165,11.0,16.0,97,0.00,,,0.19,7.000000,,2013-02-28 16:01:00,
2013-02-28 08:11:00,39.0,38.0,-100.00,SSE,165,11.0,16.0,97,0.00,,,0.19,7.000000,,2013-02-28 16:11:00,
2013-02-28 08:21:00,39.0,38.0,-100.00,SSE,165,11.0,16.0,97,0.00,,,0.19,7.000000,,2013-02-28 16:21:00,
2013-02-28 08:31:00,39.0,38.0,-100.00,SSE,165,11.0,16.0,97,0.00,,,0.19,7.000000,,2013-02-28 16:31:00,
2013-02-28 09:01:00,40.0,39.0,-100.00,SSE,165,11.0,14.0,96,0.00,,,0.19,53.000000,,2013-02-28 17:01:00,
2013-02-28 09:11:00,40.0,39.0,-100.00,SSE,165,11.0,14.0,96,0.00,,,0.19,53.000000,,2013-02-28 17:11:00,
2013-02-28 09:21:00,40.0,39.0,-100.00,SSE,165,11.0,14.0,96,0.00,,,0.19,53.000000,,2013-02-28 17:21:00,
2013-02-28 09:31:00,40.0,39.0,-100.00,SSE,165,11.0,14.0,96,0.00,,,0.19,53.000000,,2013-02-28 17:31:00,
2013-02-28 09:52:00,41.0,40.0,-100.00,SSE,167,11.0,14.0,96,0.00,,,0.19,94.000000,,2013-02-28 17:52:00,
2013-02-28 10:02:00,41.0,40.0,-100.00,SSE,167,11.0,14.0,96,0.00,,,0.19,94.000000,,2013-02-28 18:02:00,
2013-02-28 10:11:00,41.0,40.0,-100.00,SSE,167,11.0,14.0,96,0.00,,,0.19,94.000000,,2013-02-28 18:11:00,
2013-02-28 10:21:00,41.0,40.0,-100.00,SSE,167,11.0,14.0,96,0.00,,,0.19,94.000000,,2013-02-28 18:21:00,
2013-02-28 10:31:00,41.0,40.0,-100.00,SSE,167,11.0,14.0,96,0.00,,,0.19,94.000000,,2013-02-28 18:31:00,
2013-02-28 11:01:00,43.0,41.0,-100.00,SSE,163,10.0,13.0,94,0.00,,,0.19,179.000000,,2013-02-28 19:01:00,
2013-02-28 11:11:00,43.0,41.0,-100.00,SSE,163,10.0,13.0,94,0.00,,,0.19,179.000000,,2013-02-28 19:11:00,
2013-02-28 11:21:00,43.0,41.0,-100.00,SSE,163,10.0,13.0,94,0.00,,,0.19,179.000000,,2013-02-28 19:21:00,
2013-02-28 11:31:00,43.0,41.0,-100.00,SSE,163,10.0,13.0,94,0.00,,,0.19,179.000000,,2013-02-28 19:31:00,
2013-02-28 12:01:00,43.0,41.0,-100.00,SSE,162,8.0,12.0,94,0.00,,,0.19,193.000000,,2013-02-28 20:01:00,
2013-02-28 12:12:00,43.0,41.0,-100.00,SSE,162,8.0,12.0,94,0.00,,,0.19,193.000000,,2013-02-28 20:12:00,
2013-02-28 12:21:00,43.0,41.0,-100.00,SSE,162,8.0,12.0,94,0.00,,,0.19,193.000000,,2013-02-28 20:21:00,
2013-02-28 12:31:00,43.0,41.0,-100.00,SSE,162,8.0,12.0,94,0.00,,,0.19,193.000000,,2013-02-28 20:31:00,
2013-02-28 13:01:00,44.0,42.0,-100.00,SSE,164,8.0,10.0,94,0.01,,,0.20,192.000000,,2013-02-28 21:01:00,
2013-02-28 13:11:00,44.0,42.0,-100.00,SSE,164,8.0,10.0,94,0.01,,,0.20,192.000000,,2013-02-28 21:11:00,
2013-02-28 13:22:00,44.0,42.0,-100.00,SSE,164,8.0,10.0,94,0.01,,,0.20,192.000000,,2013-02-28 21:22:00,
2013-02-28 13:31:00,44.0,42.0,-100.00,SSE,164,8.0,10.0,94,0.01,,,0.20,192.000000,,2013-02-28 21:31:00,
2013-02-28 14:01:00,45.0,43.0,-100.00,SSE,162,6.0,10.0,94,0.00,,,0.20,190.000000,,2013-02-28 22:01:00,
2013-02-28 14:11:00,45.0,43.0,-100.00,SSE,162,6.0,10.0,94,0.00,,,0.20,190.000000,,2013-02-28 22:11:00,
2013-02-28 14:21:00,45.0,43.0,-100.00,SSE,162,6.0,10.0,94,0.00,,,0.20,190.000000,,2013-02-28 22:21:00,
2013-02-28 14:31:00,45.0,43.0,-100.00,SSE,162,6.0,10.0,94,0.00,,,0.20,190.000000,,2013-02-28 22:31:00,
2013-02-28 15:01:00,45.0,43.0,-100.00,SSE,164,6.0,10.0,94,0.01,,,0.21,196.000000,,2013-02-28 23:01:00,
2013-02-28 15:11:00,45.0,43.0,-100.00,SSE,164,6.0,10.0,94,0.01,,,0.21,196.000000,,2013-02-28 23:11:00,
2013-02-28 15:21:00,45.0,43.0,-100.00,SSE,164,6.0,10.0,94,0.01,,,0.21,196.000000,,2013-02-28 23:21:00,
2013-02-28 15:31:00,45.0,43.0,-100.00,SSE,164,6.0,10.0,94,0.01,,,0.21,196.000000,,2013-02-28 23:31:00,
2013-02-28 16:01:00,45.0,43.0,-100.00,SSE,166,6.0,9.0,94,0.02,,,0.23,142.000000,,2013-03-01 00:01:00,
2013-02-28 16:11:00,45.0,43.0,-100.00,SSE,166,6.0,9.0,94,0.02,,,0.23,142.000000,,2013-03-01 00:11:00,
2013-02-28 16:22:00,45.0,43.0,-100.00,SSE,166,6.0,9.0,94,0.02,,,0.23,142.000000,,2013-03-01 00:22:00,
2013-02-28 16:32:00,45.0,43.0,-100.00,SSE,166,6.0,9.0,94,0.02,,,0.23,142.000000,,2013-03-01 00:32:00,
2013-02-28 16:52:00,44.0,43.0,-100.00,SSE,166,6.0,11.0,95,0.01,,,0.20,78.000000,,2013-03-01 00:52:00,
2013-02-28 17:01:00,44.0,43.0,-100.00,SSE,166,6.0,11.0,95,0.01,,,0.20,78.000000,,2013-03-01 01:01:00,
2013-02-28 17:11:00,44.0,43.0,-100.00,SSE,166,6.0,11.0,95,0.01,,,0.20,78.000000,,2013-03-01 01:11:00,
2013-02-28 17:21:00,44.0,43.0,-100.00,SSE,166,6.0,11.0,95,0.01,,,0.20,78.000000,,2013-03-01 01:21:00,
2013-02-28 17:31:00,44.0,43.0,-100.00,SSE,166,6.0,11.0,95,0.01,,,0.20,78.000000,,2013-03-01 01:31:00,
2013-02-28 17:52:00,42.0,41.0,-100.00,SSE,166,5.0,8.0,95,0.01,,,0.17,33.000000,,2013-03-01 01:52:00,
2013-02-28 18:01:00,42.0,41.0,-100.00,SSE,166,5.0,8.0,95,0.01,,,0.17,33.000000,,2013-03-01 02:01:00,
2013-02-28 18:11:00,42.0,41.0,-100.00,SSE,166,5.0,8.0,95,0.01,,,0.17,33.000000,,2013-03-01 02:11:00,
2013-02-28 18:21:00,42.0,41.0,-100.00,SSE,166,5.0,8.0,95,0.01,,,0.17,33.000000,,2013-03-01 02:21:00,
2013-02-28 18:31:00,42.0,41.0,-100.00,SSE,166,5.0,8.0,95,0.01,,,0.17,33.000000,,2013-03-01 02:31:00,
2013-02-28 18:52:00,42.0,41.0,-100.00,SSE,164,6.0,11.0,95,0.03,,,0.17,4.000000,,2013-03-01 02:52:00,
2013-02-28 19:01:00,42.0,41.0,-100.00,SSE,164,6.0,11.0,95,0.03,,,0.17,4.000000,,2013-03-01 03:01:00,
2013-02-28 19:11:00,42.0,41.0,-100.00,SSE,164,6.0,11.0,95,0.03,,,0.17,4.000000,,2013-03-01 03:11:00,
2013-02-28 19:21:00,42.0,41.0,-100.00,SSE,164,6.0,11.0,95,0.03,,,0.17,4.000000,,2013-03-01 03:21:00,
2013-02-28 19:32:00,42.0,41.0,-100.00,SSE,164,6.0,11.0,95,0.03,,,0.17,4.000000,,2013-03-01 03:32:00,
2013-02-28 20:01:00,42.0,41.0,-100.00,SSE,166,5.0,9.0,96,0.00,,,0.14,0.000000,,2013-03-01 04:01:00,
2013-02-28 20:11:00,42.0,41.0,-100.00,SSE,166,5.0,9.0,96,0.00,,,0.14,0.000000,,2013-03-01 04:11:00,
2013-02-28 20:21:00,42.0,41.0,-100.00,SSE,166,5.0,9.0,96,0.00,,,0.14,0.000000,,2013-03-01 04:21:00,
2013-02-28 20:31:00,42.0,41.0,-100.00,SSE,166,5.0,9.0,96,0.00,,,0.14,0.000000,,2013-03-01 04:31:00,
2013-02-28 20:52:00,42.0,41.0,-100.00,SSE,157,6.0,7.0,96,0.01,,,0.15,0.000000,,2013-03-01 04:52:00,
2013-02-28 21:02:00,42.0,41.0,-100.00,SSE,157,6.0,7.0,96,0.01,,,0.15,0.000000,,2013-03-01 05:02:00,
2013-02-28 21:11:00,42.0,41.0,-100.00,SSE,157,6.0,7.0,96,0.01,,,0.15,0.000000,,2013-03-01 05:11:00,
2013-02-28 21:22:00,42.0,41.0,-100.00,SSE,157,6.0,7.0,96,0.01,,,0.15,0.000000,,2013-03-01 05:22:00,
2013-02-28 21:32:00,42.0,41.0,-100.00,SSE,157,6.0,7.0,96,0.01,,,0.15,0.000000,,2013-03-01 05:32:00,
2013-02-28 21:52:00,41.0,40.0,-100.00,SSE,160,6.0,8.0,96,0.00,,,0.15,0.000000,,2013-03-01 05:52:00,
2013-02-28 22:02:00,41.0,40.0,-100.00,SSE,160,6.0,8.0,96,0.00,,,0.15,0.000000,,2013-03-01 06:02:00,
2013-02-28 22:11:00,41.0,40.0,-100.00,SSE,160,6.0,8.0,96,0.00,,,0.15,0.000000,,2013-03-01 06:11:00,
2013-02-28 22:21:00,41.0,40.0,-100.00,SSE,160,6.0,8.0,96,0.00,,,0.15,0.000000,,2013-03-01 06:21:00,
2013-02-28 22:31:00,41.0,40.0,-100.00,SSE,160,6.0,8.0,96,0.00,,,0.15,0.000000,,2013-03-01 06:31:00,
2013-02-28 22:52:00,42.0,41.0,-100.00,SSE,161,7.0,8.0,96,0.00,,,0.14,0.000000,,2013-03-01 06:52:00,
2013-02-28 23:01:00,42.0,41.0,-100.00,SSE,161,7.0,8.0,96,0.00,,,0.14,0.000000,,2013-03-01 07:01:00,
2013-02-28 23:11:00,42.0,41.0,-100.00,SSE,161,7.0,8.0,96,0.00,,,0.14,0.000000,,2013-03-01 07:11:00,
2013-02-28 23:21:00,42.0,41.0,-100.00,SSE,161,7.0,8.0,96,0.00,,,0.14,0.000000,,2013-03-01 07:21:00,
2013-02-28 23:32:00,42.0,41.0,-100.00,SSE,161,7.0,8.0,96,0.00,,,0.14,0.000000,,2013-03-01 07:32:00,